Showing default

YAM-10, 64580

Orbit data source: Space-Track

YAM-10, 64580 is an American payload satellite in SSO that was launched on Mon, 23 Jun 2025 UTC via an FALCON 9 launch vehicle from the Air Force Western Test Range (AFWTR). Payload-class satellites include a variety of spacecraft equipped with specific instruments for various scientific and technological missions. These include communications satellites like Starlink; space stations such as the ISS; scientific satellites like the Hubble; Earth observation satellites from companies like Planet Labs, Umbra, and HawkEye 360; GPS; miniature CubeSats for education and research; and military/defense satellites.

Loading next visibility...
Identifier
64580, 2025-135BE
Orbit
SSO
Country
Flag of USUS
Related business
Manufacturer
Airbus/Toulouse
Mission
Operational Commercial Technology
Bus & Motor
ARROW, Unknown motor
Mass
~150 kg wet, ~140 kg dry
Launch date (UTC)
2025-06-23 (5 months ago)
Launch vehicle
FALCON 9
Launch site
Air Force Western Test Range (AFWTR)
Object type
Payload
Rocket body
Debris
Shape & HBR
Trap Box + 2 Pan, 2.3 m
Radar Cross Section
2.032 m², Large (>1 m²)

Expand to show TLE details & history
Last TLE update: 13 hours ago

TLE from 13 hours ago
0 YAM-10
1 64580U 25135BE  25311.88905102  .00004033  00000-0  39953-3 0  9996
2 64580  97.7588  64.0375 0003761  32.9205 327.2248 14.92375277 20863
Epoch: 2025-11-07T21:20Z
TLE epoch observation values (Epoch: 2025-11-07T21:20:14.008Z)
Latitude
0.00003°
Longitude
56.65259°
Altitude
591.37 km
Speed
7.566 km/s
True Right ascension
04h 16m 08s
True Declination
0° 00' 00"
Sunlit
Object was in full shadow at epoch
Visualization orbit readout
Latitude
Unknown
Longitude
Unknown
Altitude
Unknown
Speed
Unknown
Apparent Right ascension
Unknown
Apparent Declination
Unknown
Sunlit
N/A
Visualization observer readout
Local Sidereal Time
06:48:04
Azimuth
Unknown
Elevation
Unknown
Doppler factor
Unknown
Orbital elements
Apogee altitude
590.169 km
Perigee altitude
584.93 km
Semi-major axis
6,965.687 km
Eccentricity
0.00038
Inclination
97.7588°
RAAN
64.0375°
Arg. of periapsis
32.9205°
True anomaly
327.20146°
Mean anomaly
327.2248°
Eccentric anomaly
327.21313°
Mean motion
3.73334 °/min
Orbital period
96.43 mins
BSTAR
0.00039953
Loading maneuver chart data...
Computing Atmospheric mass density...
Loading historical data...
Loading historical data...
Loading historical data...
Loading historical data...
Loading historical data...
Loading historical data...
Loading historical data...

Documentation

Showing up to 5 results
|